Preview of NWS' New Version of Forecast
This preview is not operational and should not be used for support decisions.

Regional Weather Roundup (RWR)

Issued by National Weather Service (NWS)

                            
000
ASUS44 KJAN 241710
RWRMS 

MISSISSIPPI HOURLY WEATHER ROUNDUP
NATIONAL WEATHER SERVICE JACKSON MS
1200 PM CDT MON JUN 24 2019

NOTE: "FAIR: INDICATES FEW OR NO CLOUDS BELOW 12,000 FEET WITH NO
SIGNIFICANT WEATHER AND/OR OBSTRUCTIONS TO VISIBILITY.

MSZ001>002-007>008-010>013-018>021-025>028-034>036-241800-
NORTHWEST MISSISSIPPI
  
CITY           SKY/WX    TMP DP  RH WIND       PRES   REMARKS
BATESVILLE     PTSUNNY   79  70  73 W7        29.91S                  
CLARKSDALE     MOSUNNY   82  72  69 SW9G15    29.91R                  
CLEVELAND      FAIR      78  69  74 SW15      29.92S                  
GREENWOOD      FAIR      80  70  71 SW7       29.92R                  
GREENVILLE       N/A    N/A N/A N/A MISG      29.92R                  
OLIVE BRANCH   PTSUNNY   77  66  69 W12G18    29.90R                  
OXFORD         FAIR      77  66  69 W13       29.93R                  
TUNICA           N/A     77  68  73 SW9       29.91R                  
WINONA         FAIR      80  69  69 S6        29.92S                  
$$

MSZ003>006-009-014>017-022>024-029>033-037>039-241800-
NORTHEAST MISSISSIPPI
  
CITY           SKY/WX    TMP DP  RH WIND       PRES   REMARKS
ABERDEEN         N/A     81  82 100 SW7G16    29.91R FOG     HX  91   
COLUMBUS AFB   FAIR      85  74  69 W9        29.89R HX  91           
CORINTH        PTSUNNY   77  68  73 W13       29.90R                  
GOLDN TRIANGLE FAIR      84  72  67 W8        29.90R                  
STARKVILLE     FAIR      81  72  74 W7        29.92R                  
TUPELO         FAIR      82  70  66 W9        29.90R                  
$$

MSZ040-058-241800-
CENTRAL MISSISSIPPI
  
CITY           SKY/WX    TMP DP  RH WIND       PRES   REMARKS
JACKSON INTL   PTSUNNY   79  67  66 S12       29.93F                  
JACKSON HAWKNS PTSUNNY   79  69  71 S12       29.93F                  
MADISON        FAIR      75  70  83 S9        29.92F                  
MERIDIAN KEY   FAIR      82  70  66 SW15      29.94F                  
MERIDIAN NAS   CLOUDY    81  70  69 SW10      29.93F                  
RAYMOND        FAIR      79  72  78 S13       29.91F                  
VICKSBURG VKS  SUNNY     81  68  65 VRB7      29.92S                  
$$

MSZ059>079-241800-
SOUTH MISSISSIPPI
  
CITY           SKY/WX    TMP DP  RH WIND       PRES   REMARKS
HATTIESBURG    FAIR      81  69  67 S6        30.00F                  
LAUREL         SUNNY     80  69  70 SW8       29.97F                  
MCCOMB         FAIR      78  68  71 SW6       30.02R                  
NATCHEZ        NOT AVBL                                               
PINE BELT      FAIR      78  71  79 VRB3      30.00F                  
$$

MSZ080>082-241800-
COASTAL MISSISSIPPI
  
CITY           SKY/WX    TMP DP  RH WIND       PRES   REMARKS
BAY ST LOUIS   MOSUNNY   82  68  61 W6        30.02R                  
BILOXI         FAIR      89  70  53 CALM      30.00S HX  94           
PASCAGOULA     FAIR      89  73  59 W5        30.00S HX  97           
GULFPORT       FAIR      87  68  52 W8        30.00R HX  90           
$$

LAZ007>009-015>016-023>026-241800-
NORTHEAST LOUISIANA
  
CITY           SKY/WX    TMP DP  RH WIND       PRES   REMARKS
BASTROP        FAIR      78  65  64 W8        29.96R                  
TALLULAH/VBURG FAIR      79  69  71 VRB3G16   29.93R                  
VIDALIA        FAIR      77  70  77 S10G17    29.93R                  
$$